Starlink 11297

operational
NORAD ID: 61060 Int'l Des: 2024-164 Owner: SPXS Country: US Constellation: starlink
LEOCIRCULAR

Über Starlink 11297

Beschreibung wird geladen...

Live-Position

3D-Globus wird geladen...

Nächste Überflüge

Höhenverlauf

Altitude vs Time

uPlot chart will show altitude changes over time

Zweizeiliger Elementsatz

1 61060U 24164L 25305.50615251 .00000014 00000-0 49785-5 0 9993
2 61060 53.1596 223.3529 0001312 80.9854 279.1313 15.69708216 65283
Epoch: 1. Nov. 2025 • Age: 25 hours

Aktueller Status

Höhe 360.0 km
Geschwindigkeit 7.70 km/s
Subsatellitenpunkt 23.38°N, 4.22°E
Startdatum 13. Sept. 2024
Alter 1.1 years
Typ internet

Technische Details

Klassifizierung Payload
Masse 960.00 kg
Trockenmasse 910.00 kg
Gesamtmasse 960.00 kg
Länge 0.30 m
Durchmesser 4.10 m
Spannweite 29.00 m
Form Box + pan
Hersteller SPXS
Bus-Typ Starlink V2MD
Phasenstatus In Orbit
Besitzer/Staat SPXS/US

Große Konstellationen

Loading constellations...